Regional Weather Roundup
Issued by NWS

Home | Current Version | Previous Version | Graphics & Text | Print | Product List | Glossary On
Versions: 1 2 3 4 5 6 7 8 9 10 11 12 13 14 15 16 17 18 19 20 21 22 23 24 25 26 27 28 29 30 31 32 33 34 35 36 37 38 39 40 41 42 43 44 45 46 47 48 49 50
000
ASUS43 KLMK 221510
RWRKY
KENTUCKY REGIONAL WEATHER ROUNDUP
NATIONAL WEATHER SERVICE LOUISVILLE KY
1000 AM EST WED NOV 22 2017

NOTE "FAIR" INDICATES FEW OR NO CLOUDS BELOW 12,000 FEET
WITH NO SIGNIFICANT WEATHER AND/OR OBSTRUCTIONS TO VISIBILITY.

KYZ001>023-026-027-061>063-070>075-221600-
WESTERN AND SOUTH CENTRAL KENTUCKY

CITY           SKY/WX    TMP DP  RH WIND       PRES   REMARKS
PADUCAH        CLOUDY    33  21  61 N14       30.39R WCI  23
HENDERSON      CLOUDY    32  22  66 N8        30.40R WCI  25
OWENSBORO      SUNNY     33  23  66 N8        30.39R WCI  26
HOPKINSVILLE   SUNNY     34  24  67 N13       30.34R WCI  25
BOWLING GREEN  SUNNY     36  26  67 N7        30.34R WCI  30
GLASGOW        SUNNY     36  26  66 NE9       30.32R WCI  29
$$

KYZ024-025-028>034-038-045-046-053-221600-
NORTH CENTRAL KENTUCKY

CITY           SKY/WX    TMP DP  RH WIND       PRES   REMARKS
LOUISVILLE/SDF MOSUNNY   37  24  59 N9        30.35R WCI  30
LOUISVILLE/LOU MOSUNNY   35  25  66 N9        30.35R WCI  28
FORT KNOX      SUNNY     33  24  68 N10       30.32R WCI  25
$$

KYZ035>037-039>044-047>052-055>060-089>105-221600-
NORTHEAST KENTUCKY

CITY           SKY/WX    TMP DP  RH WIND       PRES   REMARKS
LEXINGTON      MOSUNNY   34  26  72 N9        30.30R WCI  27
COVINGTON      MOSUNNY   34  27  75 NW8       30.29R WCI  27
FRANKFORT      MOSUNNY   35  24  64 N5        30.31R WCI  31
$$

KYZ054-064>069-076>088-106>120-221600-
SOUTHEAST KENTUCKY

CITY           SKY/WX    TMP DP  RH WIND       PRES   REMARKS
JACKSON        PTSUNNY   35  26  69 VRB6      30.24R WCI  30
LONDON         CLOUDY    36  27  69 NE8       30.25R WCI  30
SOMERSET       CLOUDY    32  28  86 N9        30.29R WCI  24
MIDDLESBORO    PTSUNNY   40  33  77 NE8       30.23R WCI  34
MONTICELLO     PTSUNNY   35  28  75 N16G22    30.29S WCI  25
$$





USA.gov is the U.S. government's official web portal to all federal, state and local government web resources and services.